[[{"header":{"parameterUnit":"m.s-1","parameterCategory":1,"la1":30.2991,"la2":30.254,"lo1":-89.0895,"lo2":-89.0444,"dy":0.0017,"dx":0.0017,"nx":28,"ny":28,"refTime":"2024-07-14T03:00:00:Z","depth":0,"parameterNumber":2,"parameterNumberName":"U-component_of_WINDS"},"data":[0,0,0,0,0,0,0,0,0,0,0,0,0,0,0,0,0,0,0,0,0,0,0,0,0,0,0,0,0,0,0,0,0,0,0,0,0,0,0,0,0,0,0,0,0,0,0,0,0,0,0,0,0,0,0,0,0,0,0.9279,0.928,0,0.9439,0.9441,0.9443,0.9493,0.9492,0.9491,0.9491,0.9656,0.9661,0.9666,0,0,0,0,0,0,0,0,0,0,0,0,0,0.9015,0.9019,0.9278,0.928,0.9282,0.9439,0.9441,0.9443,0.9493,0.9492,0.9491,0.949,0.9654,0.966,0.9666,0,0,0,0,0,0,0,0,0,0,0,0,0,0.9148,0.9021,0.9278,0.9326,0.9332,0.9438,0.9441,0.9444,0.9493,0.9492,0.9491,0.949,0.9652,0.966,0.9667,0.9737,0,0,0.9691,0.9694,0,0,0,0,0,0,0,0,0.914,0.9157,0.9317,0.9323,0.933,0.9445,0.9409,0.9542,0.9494,0.9432,0.9491,0.9489,0.9587,0.96,0.9632,0.9745,0.9752,0.9691,0.9696,0.9699,0.9701,0,0,0,0,0,0,0,0.9131,0.9151,0.9342,0.9319,0.9327,0.934,0.9357,0.9434,0.9514,0.9437,0.9441,0.946,0.959,0.9625,0.9636,0.9755,0.9691,0.9698,0.9703,0.9706,0.9933,0.9935,0,0,0,0,0,0,0.9113,0.9143,0.9337,0.9347,0.923,0.9345,0.9365,0.9409,0.9513,0.9528,0.9461,0.9461,0.9612,0.9627,0.9642,0.9731,0.9699,0.9706,0.9711,0.9932,0.9933,0.9935,0,0,0,0,0,0,0.9108,0.913,0.933,0.9246,0.9272,0.9351,0.94,0.9413,0.9448,0.9531,0.9545,0.9482,0.9612,0.9632,0.9713,0.9738,0.971,0.9717,0.993,0.9932,0.9934,0.991,0,0,0,0,0,0,0.91,0.9128,0.9155,0.9246,0.9277,0.9398,0.9402,0.9417,0.9461,0.9464,0.9554,0.9568,0.9613,0.9702,0.9721,0.9748,0.9723,0.9928,0.9931,0.9934,0.9909,0.9911,0.9913,0,0,0,0,0,0.909,0.9142,0.9156,0.918,0.9313,0.94,0.9417,0.9467,0.9463,0.9491,0.9544,0.9565,0.9732,0.971,0.9732,0.9761,0.9927,0.993,0.9933,0.9908,0.991,0.9912,0,0,0,0,0,0,0.9052,0.9155,0.9172,0.9255,0.9318,0.9408,0.9445,0.9468,0.9534,0.9534,0.9593,0.9614,0.9691,0.9734,0.9708,0.9835,0.983,0.9838,0.9803,0.9806,0.9808,0.9796,0.9729,0,0,0,0,0,0.9053,0.9116,0.9202,0.9267,0.9298,0.9366,0.9406,0.9439,0.9507,0.9534,0.9593,0.9658,0.9725,0.9768,0.9835,0.9915,0.9936,0.9947,0.9948,0.995,0.9956,1.0001,1.0007,0.9946,0.9946,0.9946,0,0,0.9057,0.912,0.9156,0.9261,0.9314,0.9377,0.9388,0.9454,0.9501,0.9544,0.9624,0.967,0.9747,0.9828,0.9867,0.9867,0.9977,0.9954,0.9954,0.996,1.0005,1.0011,1.0016,0.9948,0.9948,0.9947,0,0,0.9094,0.9149,0.9209,0.9262,0.9342,0.9387,0.9401,0.9488,0.952,0.9601,0.9634,0.9691,0.9806,0.9859,0.9901,0.9959,0.9981,0.9979,0.9989,1.0033,1.0038,1.0042,1.0063,1.0069,0.9985,0.9985,0.9985,0,0.9088,0.9184,0.9237,0.9301,0.9346,0.9387,0.9448,0.9497,0.9595,0.9625,0.9623,0.9768,0.9823,0.9917,0.993,0.9963,0.9981,0.9969,1.0033,1.0038,1.0043,1.0063,1.0071,0.9984,0.9984,0.9984,0.9984,0,0.9173,0.9239,0.9278,0.9371,0.942,0.9482,0.9544,0.9588,0.9616,0.9661,0.9744,0.9811,0.9892,0.9917,0.9945,1.0015,1.0012,1.0021,1.0018,1.0047,1.0067,1.0075,0.9983,0.9983,0.9984,0.9984,0,0,0.9191,0.9312,0.9325,0.9368,0.9459,0.9511,0.9576,0.9654,0.969,0.9756,0.9811,0.9907,0.9916,0.9964,0.9999,1.0037,1.0078,1.0042,1.0044,1.0046,1.0159,1.0151,1.0159,1.0093,1.0095,1.0097,1.0152,0,0.924,0.9356,0.9405,0.9499,0.9561,0.9601,0.9657,0.9719,0.9762,0.9821,0.987,0.9937,0.9943,0.9972,1.0012,1.0065,1.0102,1.0062,1.0145,1.0148,1.0124,1.017,1.0162,1.0211,1.016,1.0162,1.0163,0,0.9313,0.9379,0.9479,0.9562,0.959,0.964,0.9715,0.9771,0.9842,0.9872,0.9924,0.9958,1.0027,1.0019,1.0114,1.0086,1.0123,1.0154,1.0157,1.0167,1.0156,1.018,1.0228,1.0235,1.0175,1.0174,1.0173,0,0.9315,0.9429,0.9504,0.9539,0.9639,0.9673,0.9716,0.9786,0.983,0.9896,0.9925,0.9999,1.0039,1.0095,1.0147,1.0137,1.0238,1.0235,1.0264,1.0263,1.0283,1.0281,1.0338,1.0308,1.0308,1.0307,1.0307,0,0.9365,0.9424,0.9506,0.9552,0.962,0.9676,0.9741,0.9787,0.9849,0.9904,0.9943,0.9994,1.006,1.012,1.0161,1.0234,1.0252,1.0277,1.0287,1.0274,1.027,1.0299,1.0296,1.031,1.0309,1.0309,1.0308,0,0.9379,0.9436,0.952,0.9608,0.9631,0.9677,0.9752,0.9798,0.9844,0.9913,0.9933,1.0004,1.0076,1.0134,1.0228,1.0256,1.0332,1.0344,1.0308,1.0313,1.0339,1.0336,1.0416,1.0429,1.039,1.039,1.039,0,0.9406,0.9453,0.9546,0.9585,0.9628,0.9692,0.9737,0.9794,0.9839,0.9924,0.9959,1.0034,1.0097,1.021,1.0271,1.0343,1.0356,1.0379,1.0368,1.0352,1.0356,1.0353,1.0358,1.038,1.0381,1.0381,1.0381,0,0.9449,0.9475,0.9539,0.9613,0.9666,0.9726,0.9788,0.9818,0.9886,0.9935,1.0009,1.0058,1.0154,1.0228,1.0306,1.0351,1.0377,1.0384,1.0395,1.0381,1.0358,1.037,1.0311,1.0382,1.0382,1.0382,1.0382,1.0382,0.9471,0.9514,0.9586,0.9655,0.9708,0.9765,0.9812,0.9864,0.9926,1.0009,1.0039,1.0114,1.0185,1.0293,1.0338,1.0398,1.04,1.0415,1.0419,1.0422,1.042,1.0348,1.0412,1.0413,1.0413,1.0413,1.0413,0,0.9515,0.9563,0.9627,0.9712,0.9767,0.9787,0.9856,0.99,0.9967,1.003,1.0091,1.0176,1.0248,1.0314,1.0389,1.0424,1.0438,1.0442,1.0439,1.0449,1.0414,1.0397,1.0429,1.0429,1.0429,1.0429,1.0429,1.0429,0.9544,0.9619,0.9653,0.9754,0.9802,0.9877,0.9914,0.9967,1.0018,1.0111,1.017,1.0213,1.0278,1.0357,1.0424,1.0442,1.0467,1.0468,1.0488,1.0454,1.0452,1.0449,1.0434,1.0473,1.0473,1.0518,1.0519,1.0519]},{"header":{"parameterUnit":"m.s-1","parameterCategory":1,"la1":30.2991,"la2":30.254,"lo1":-89.0895,"lo2":-89.0444,"dy":0.0017,"dx":0.0017,"nx":28,"ny":28,"refTime":"2024-07-14T03:00:00:Z","depth":0,"parameterNumber":3,"parameterNumberName":"V-component_of_WINDS"},"data":[0,0,0,0,0,0,0,0,0,0,0,0,0,0,0,0,0,0,0,0,0,0,0,0,0,0,0,0,0,0,0,0,0,0,0,0,0,0,0,0,0,0,0,0,0,0,0,0,0,0,0,0,0,0,0,0,0,0,5.3029,5.3028,0,5.3016,5.3016,5.3016,5.2938,5.2936,5.2934,5.2932,5.292,5.2922,5.2923,0,0,0,0,0,0,0,0,0,0,0,0,0,5.2985,5.2986,5.3029,5.3028,5.3028,5.3016,5.3016,5.3016,5.2938,5.2936,5.2933,5.2931,5.292,5.2921,5.2923,0,0,0,0,0,0,0,0,0,0,0,0,0,5.2992,5.2987,5.3029,5.2988,5.2984,5.3016,5.3016,5.3016,5.2939,5.2936,5.2933,5.293,5.2919,5.2921,5.2923,5.2994,0,0,5.293,5.2931,0,0,0,0,0,0,0,0,5.2991,5.2993,5.2994,5.2991,5.2987,5.2976,5.2996,5.3009,5.2939,5.2956,5.2932,5.2929,5.2941,5.2941,5.2945,5.2993,5.2993,5.293,5.2932,5.2933,5.2933,0,0,0,0,0,0,0,5.2991,5.2993,5.3024,5.2994,5.299,5.297,5.2968,5.2998,5.2965,5.2954,5.2948,5.2948,5.2938,5.2943,5.2944,5.2993,5.293,5.2932,5.2934,5.2934,5.3099,5.3102,0,0,0,0,0,0,5.2996,5.2993,5.3024,5.3023,5.2982,5.2974,5.2971,5.2982,5.2964,5.2959,5.2951,5.2944,5.2941,5.2942,5.2944,5.3025,5.2933,5.2935,5.2936,5.3096,5.31,5.3103,0,0,0,0,0,0,5.2995,5.3,5.3025,5.3007,5.3009,5.2977,5.299,5.2983,5.2988,5.2961,5.2955,5.2962,5.2939,5.2941,5.2982,5.3024,5.2936,5.2938,5.3092,5.3097,5.3101,5.319,0,0,0,0,0,0,5.2995,5.3,5.3026,5.3008,5.301,5.3063,5.2993,5.2985,5.2992,5.2984,5.297,5.2965,5.2937,5.2979,5.2984,5.3025,5.2939,5.3088,5.3094,5.31,5.3183,5.3197,5.3208,0,0,0,0,0,5.2993,5.3051,5.3028,5.3032,5.3042,5.3066,5.3067,5.3033,5.2996,5.3022,5.3005,5.2965,5.3019,5.2984,5.2989,5.3031,5.3086,5.3093,5.3099,5.3177,5.3194,5.3208,0,0,0,0,0,0,5.3075,5.3048,5.3022,5.3076,5.3074,5.3053,5.3085,5.3052,5.306,5.3052,5.301,5.3008,5.3056,5.3048,5.301,5.3099,5.3045,5.3054,5.3103,5.3118,5.3131,5.3132,5.2941,0,0,0,0,0,5.3099,5.3121,5.3096,5.3146,5.3147,5.3116,5.3125,5.3099,5.3096,5.3094,5.308,5.3078,5.3094,5.3106,5.3119,5.3181,5.3177,5.3213,5.3226,5.3236,5.3244,5.3277,5.3292,5.3126,5.3126,5.3125,0,0,5.315,5.3138,5.3154,5.3162,5.3158,5.3181,5.3116,5.3143,5.316,5.3098,5.3137,5.3127,5.3122,5.3174,5.3196,5.3169,5.3289,5.3245,5.3254,5.3256,5.3285,5.3301,5.3315,5.313,5.3129,5.3129,0,0,5.3254,5.3247,5.3288,5.3285,5.3279,5.3258,5.3268,5.3252,5.3243,5.3281,5.3235,5.3255,5.3284,5.3282,5.3285,5.339,5.3354,5.3395,5.3462,5.3495,5.3508,5.3519,5.3557,5.3571,5.3403,5.3403,5.3403,0,5.3317,5.335,5.3313,5.3344,5.3349,5.3294,5.3336,5.3335,5.3334,5.3339,5.3308,5.3343,5.3336,5.3387,5.3413,5.3417,5.3427,5.3397,5.3509,5.352,5.353,5.3566,5.358,5.3408,5.3408,5.3407,5.3407,0,5.3429,5.3453,5.3487,5.3487,5.3496,5.3533,5.3501,5.3515,5.3489,5.3472,5.3511,5.3501,5.3511,5.3522,5.3496,5.357,5.3553,5.3516,5.3461,5.3552,5.3584,5.3598,5.3416,5.3414,5.3412,5.3411,0,0,5.3584,5.3563,5.3577,5.3576,5.3566,5.3584,5.3618,5.3628,5.3641,5.3642,5.367,5.3696,5.3662,5.3666,5.3639,5.3668,5.3752,5.3627,5.3627,5.3651,5.3833,5.3861,5.3877,5.3728,5.3731,5.3733,5.3834,0,5.3684,5.374,5.3708,5.3769,5.3791,5.374,5.3769,5.3766,5.3752,5.3768,5.3752,5.3771,5.3725,5.3727,5.3752,5.3736,5.3788,5.3728,5.3754,5.3755,5.3757,5.3894,5.3923,5.4019,5.3846,5.3848,5.385,0,5.3808,5.3814,5.3878,5.3864,5.3872,5.3899,5.3906,5.3923,5.3919,5.3906,5.3911,5.3878,5.391,5.3856,5.3901,5.3862,5.387,5.3864,5.3867,5.3868,5.3808,5.3899,5.4049,5.4064,5.3869,5.3868,5.3866,0,5.3915,5.394,5.3981,5.3982,5.3967,5.3987,5.3982,5.3975,5.3983,5.399,5.3995,5.4005,5.4011,5.402,5.3991,5.3955,5.404,5.3984,5.4031,5.4032,5.4051,5.405,5.4205,5.4057,5.4056,5.4056,5.4056,0,5.403,5.4071,5.4029,5.4054,5.4099,5.4062,5.4107,5.4096,5.4091,5.4113,5.407,5.4092,5.4052,5.4071,5.4048,5.4089,5.4092,5.4083,5.4076,5.4087,5.4088,5.4092,5.4084,5.406,5.4059,5.4058,5.4058,0,5.4157,5.413,5.4172,5.4154,5.4151,5.4185,5.4169,5.4192,5.4175,5.4204,5.4209,5.4181,5.4201,5.4173,5.419,5.4174,5.4231,5.4214,5.4232,5.4227,5.4276,5.4272,5.4439,5.4459,5.4298,5.43,5.4301,0,5.4232,5.4262,5.4248,5.426,5.4257,5.4277,5.4286,5.425,5.4261,5.4259,5.4283,5.4299,5.431,5.4343,5.4325,5.4338,5.4321,5.4379,5.4323,5.4333,5.4323,5.4321,5.4324,5.439,5.4392,5.4394,5.4395,0,5.4369,5.4354,5.4368,5.4378,5.4389,5.4395,5.4398,5.4411,5.4374,5.4388,5.4408,5.4416,5.4433,5.445,5.4458,5.4452,5.4418,5.4413,5.4424,5.4436,5.4445,5.4441,5.4264,5.4409,5.4408,5.4407,5.4406,5.4405,5.4472,5.4497,5.4491,5.4508,5.4506,5.451,5.4531,5.4516,5.4532,5.4543,5.4521,5.4547,5.4542,5.4549,5.4548,5.4567,5.4542,5.4559,5.4563,5.4568,5.4576,5.4442,5.4569,5.4568,5.4568,5.4567,5.4567,0,5.4607,5.46,5.4617,5.4622,5.4636,5.4602,5.4604,5.4617,5.464,5.4639,5.465,5.4673,5.4689,5.4673,5.4686,5.4704,5.4689,5.4709,5.4707,5.4707,5.4597,5.4586,5.4721,5.4721,5.4721,5.4721,5.4721,5.4721,5.4678,5.4719,5.4704,5.4743,5.4736,5.4761,5.4765,5.4768,5.4767,5.4794,5.4807,5.4796,5.4789,5.4801,5.4815,5.4809,5.4816,5.4842,5.4831,5.4729,5.4714,5.47,5.4689,5.4844,5.4844,5.4939,5.494,5.494]}]]